国际通讯卫星 515星 (INTELSAT 515)

导读 | 星芒AI

INTELSAT 515 是一颗由国际通信卫星组织(Intelsat)运营的通信卫星,于2001年发射,旨在提供跨大西洋的固定卫星服务(FSS)。该卫星搭载C波段和Ku波段转发器,主要用于广播、企业通信和互联网服务。它位于东经345度轨道位置,覆盖欧洲、非洲和美洲部分地区。INTELSAT 515 在其服役期间为多个行业提供了关键的通信支持,直到被更先进的卫星所取代。

基本信息
目录编号:
19772
目录名称:
INTELSAT 515
国际标识:
1989-006A
轨道中心:
EARTH
卫星名称:
国际通讯卫星 515星
卫星全名:
国际通讯卫星 515星 (INTELSAT 515)
卫星状态:
在轨 (已飞行13424 天)
发射日期:
1989-01-27 UTC
国别 :
(ITSO)
星等 :
--
轨道信息
数据来源 国际轨道数据 AOE轨道数据
星历时间 2025-10-28T07:13:50+0800
1天前
查看轨道信息
2025-10-29T08:00:00+0800
6小时前
查看轨道信息
半长轴 42495.001km 42494.915km
偏心率 0.0019866 0.0019719
轨道倾角 14.928° 14.928°
近地点辐角 128.194° 128.802°
升交点赤经 355.930° 355.923°
平近点角 237.718° 245.342°
近地点 36032.445km 36032.984km
远地点 36201.287km 36200.576km
周期 1453.003分钟 1452.999分钟
每日圈数 0.991051 0.991054
详细信息
卫星平台:
Intelsat V
平衡模式:
三轴稳定
覆盖范围:
全球
运营商:
国际卫星通信公司
运营商所在国:
美国
制造商(研发单位):
福特工程公司
制造商所在国:
美国
使用方式:
暂无
卫星简介
从1965年4月至1984年3月,国际通信卫星组织发射了5代、6种不同性能的卫星共计35颗,除6颗卫星因运载火箭和远地点发动机故障而发射失败外,其余29颗卫星均被送到了预定的静止轨道位置。1984年8月前后,国际通信卫星组织利用部署在大西洋、太平洋、印度洋上空的15颗国际通信卫星,为遍布世界各地170多个国家或地区提供电话、电传、电报、电视和数据传输等电信业务;该卫星已退役。
2D轨道图
3D轨道图
轨道高度分析图
轨道倾角分析图
轨道综合分析图
查看轨道综合分析图